Flag for U.S.A. Weather past 2 weeks in Sunnyvale, California, U.S.A.

Now
74 °F

Sunny.


Feels Like: 77 °F
Forecast: 61 / 88 °F
Wind: 9 mph from North

Location: Moffett Field

Current Time: Jul 31, 2014 at 2:01:05 PM

Latest Report: Jul 31, 2014 at 12:56 PM


Visibility: 10 mi

Pressure: 29.97 "Hg

Humidity: 62%

Dew point: 60 °F

Location of SunnyvaleLocation

Historic Weather in Sunnyvale — Graph

°F

Sunnyvale temperature yesterday

Maximum temperature yesterday: 79 °F (at 2:56 PM)
Minimum temperature yesterday: 63 °F (at 4:56 AM)
Average temperature yesterday: 68 °F

Past Weeks' High & Low Weather Summary

 TemperatureHumidityPressure
High93 °F (Jul 25, 2:56 PM)90% (Jul 24, 5:56 AM)30.15 "Hg (Jul 24, 5:56 AM)
Low61 °F (Jul 24, 5:56 AM)19% (Jul 25, 1:56 PM)29.83 "Hg (Jul 25, 4:56 PM)
Average70 °F69%29.99 "Hg
* Reported Jul 16 12:56 PM — Jul 31 12:56 PM, Sunnyvale, Weather by CustomWeather, © 2014

Note: Actual official high and low records may vary slightly from our data, if they occured in-between our weather recording intervals... More about our weather records

Advertising

Sunnyvale weather history for previous 24 hours

 ConditionsComfort  
Time TempWeatherWind HumidityBarometerVisibility
12:56 PM
Jul 31
74 °FSunny.9 mph62%29.97 "Hg10 mi
11:56 AM71 °FSunny.7 mph66%29.98 "Hg10 mi
10:56 AM69 °FSunny.7 mph70%29.99 "Hg10 mi
10:03 AM66 °FPassing clouds.7 mph73%29.99 "Hg10 mi
9:56 AM68 °FPartly sunny.8 mph70%30.00 "Hg10 mi
8:56 AM64 °FOvercast.6 mph81%30.01 "Hg10 mi
7:56 AM64 °FLow clouds.7 mph84%29.99 "Hg10 mi
6:56 AM63 °FLow clouds.No wind87%29.98 "Hg9 mi
5:56 AM63 °FLow clouds.No wind87%29.98 "Hg10 mi
4:56 AM63 °FLow clouds.3 mph87%29.97 "Hg10 mi
3:56 AM63 °FLow clouds.No wind87%29.98 "Hg10 mi
2:56 AM63 °FLow clouds.No wind87%29.99 "Hg10 mi
1:56 AM63 °FLow clouds.3 mph84%29.98 "Hg10 mi
12:56 AM63 °FPassing clouds.No wind87%29.98 "Hg10 mi
11:56 PM
Jul 30
63 °FPassing clouds.3 mph87%29.98 "Hg10 mi
10:56 PM64 °FClear.3 mph84%29.99 "Hg10 mi
9:56 PM65 °FClear.8 mph81%29.99 "Hg10 mi
8:56 PM66 °FSunny.6 mph81%29.98 "Hg10 mi
7:56 PM68 °FSunny.8 mph76%29.96 "Hg10 mi
6:56 PM72 °FSunny.10 mph71%29.95 "Hg10 mi
5:56 PM74 °FSunny.12 mph62%29.95 "Hg10 mi
4:56 PM75 °FSunny.12 mph62%29.96 "Hg10 mi
3:56 PM77 °FSunny.13 mph56%29.95 "Hg10 mi
2:56 PM79 °FSunny.10 mph54%29.96 "Hg10 mi
Weather by CustomWeather, © 2014

See weather overviewHow to use our weather pages